{"data":{"norad_id":64273,"intl_designator":"2025-120T","name":"STARLINK-34334","alt_names":[],"object_type":"PAYLOAD","status":"ACTIVE","operator":null,"country":"US","launch_date":"2025-06-04","launch_site_code":"AFWTR","launch_vehicle":null,"mission":null,"orbit_class":"UNKNOWN","rcs_meters":null,"size_class":null,"mass_kg":null,"dimensions":null,"purposes":["comms"],"wikipedia_slug":null,"has_3d_model":false,"image_url":null,"decayed_at":null,"tle_current":{"epoch":"2026-05-25T04:38:29.937120Z","epoch_age_seconds":61558,"freshness":"FRESH","line1":"1 64273U 25120T   26145.19340205  .00025588  00000+0  87267-3 0  9994","line2":"2 64273  53.1599 121.0237 0001371  76.4171 283.6982 15.30214672 55638","mean_motion":15.30214672,"eccentricity":0.0001371,"inclination_deg":53.1599,"raan_deg":121.0237,"arg_perigee_deg":76.4171,"mean_anomaly_deg":283.6982,"bstar":0.00087267,"rev_number":5563,"period_min":94.104443405833,"perigee_km":474.23167325931,"apogee_km":476.1108503847,"semimajor_km":6853.308261822,"source":"CELESTRAK","updated_at":"2026-05-25T13:38:20.361051Z"}}}